Powrót do katalogu

STARLINK-31582

AktywnyŁącznośćVLEO
NORAD 59545·PAYLOAD·🇺🇸 United States

Wystrzelony Apr 18, 2024 z Cape Canaveral Space Force Station

Loading…

Następne Przeloty (najbliższe 24 godziny)

TLE

ŚwieżeSource: CelesTrak SupGP

Epoka: Sep 14, 2026, 21:05 UTC

1 59545C 24074M   26257.87895833  .00009427  00000+0  34144-3 0  2575
2 59545  43.0040 355.3977 0001662 272.6971 124.9543 15.27572621    16

Śledź STARLINK-31582 w czasie rzeczywistym z AllMySat

Download on the App Store